MMS 3

Last updated on July 5, 2021, 2:16 p.m. UTC

1 40484U 15011C   21185.40810502 -.00001305  00000-0  00000+0 0  9994
2 40484  33.5718 116.4628 8434179  34.1062 110.2347  0.28553873 12281
UTC
Height (km)
Latitude
Longitude
Inclination
Orbital Period
UTC large
Height (km)
Speed (km/s)
/
Latitude / Longitude
Inclination (degrees)
Orbital Period (minutes)
Azimuth
Elevation
Range (km)
Doppler Factor
iOS Compass Heading
iOS Angle